Location: Moscow
(55.7500°N, 37.5830°E)
Time: 14:24:21
(UTC+03:00)

Vanguard 1 - Pass Details

Date: 02 December 2021
Orbit: 652 x 3830 km, 34.2° (Epoch: 25 January)

Event Time Altitude Azimuth Distance (km) Brightness Sun altitude
Exits shadow 01:11:47 22° 122° (ESE) 5,344 13.6 -54.8°
Drops below altitude 10° 01:17:58 10° 105° (ESE) 5,923 14.0 -54.5°
Sets 01:22:33 0° 96° (E) 6,548 14.4 -54.2°
